Regional Weather Roundup
Issued by NWS

Home | Current Version | Previous Version | Graphics & Text | Print | Product List | Glossary On
Versions: 1 2 3 4 5 6 7 8 9 10 11 12 13 14 15 16 17 18 19 20 21 22 23 24 25 26 27 28 29 30 31 32 33 34 35 36 37 38 39 40 41 42 43 44 45 46 47 48 49 50
000
ASUS45 KABQ 191510
RWRNM
NEW MEXICO REGIONAL WEATHER ROUNDUP
NATIONAL WEATHER SERVICE ALBUQUERQUE NM
800 AM MST THU JAN 19 2017

NOTE: "FAIR" MEANS FEW OR NO CLOUDS BELOW 12,000 FEET AGL WITH NO
       SIGNIFICANT WEATHER OR OBSTRUCTIONS TO VISION.

      THIS PRODUCT IS RELEASED AS TWO VERSIONS.  ONE VERSION NEAR
      THE TOP OF THE HOUR CONTAINING PRELIMINARY DATA FROM ALBUQUERQUE
      AND OTHER STATIONS.  A FINAL VERSION WITH ADDITIONAL DATA IS
      ISSUED ABOUT 10 MINUTES AFTER THE HOUR.

NMZ501-503-504-510>518-191600-
NORTHWEST PLATEAU/NORTHCENTRAL MOUNTAINS

CITY           SKY/WX    TMP DP  RH WIND       PRES   REMARKS
FARMINGTON     FAIR      25  23  92 NE7       29.92S WCI  17
LOS ALAMOS       N/A     27  26  94 S5        29.89S WCI  22
SANTA FE       FAIR      33  25  72 N10       29.88R WCI  25
TAOS           CLOUDY    25  16  68 N5        29.90R WCI  19
ANGEL FIRE     FAIR      24  19  80 SW12G21   29.83R WCI  13

$$
NMZ402-403-502-505>509-191600-
WESTCENTRAL MOUNTAINS/SOUTHWEST MOUNTAINS

CITY           SKY/WX    TMP DP  RH WIND       PRES   REMARKS
GALLUP         CLOUDY    32  29  88 SW9       29.96S WCI  24
GRANTS         FAIR      30  28  90 NW17      29.97F WCI  18
SILVER CITY    FAIR      32  30  90 NW8       30.01R WCI  25

$$
NMZ407-409-411-412-191600-
SOUTHERN DESERTS

CITY           SKY/WX    TMP DP  RH WIND       PRES   REMARKS
DEMING         FAIR      34  32  92 W5        30.00S WCI  30
LAS CRUCES     FAIR      39  32  76 W3        29.99S
HOLLOMAN AFB   FAIR      38  33  81 N5        29.97S WCI  35
ALAMOGORDO     FAIR      39  32  75 N6        29.95S WCI  35
T OR C         FAIR      40  28  62 NW13      29.93S WCI  32

$$
NMZ519>523-191600-
CENTRAL VALLEYS/CENTRAL HIGHLANDS

CITY           SKY/WX    TMP DP  RH WIND       PRES   REMARKS
ALBUQUERQUE    FAIR      32  28  85 SE5       29.93S WCI  27
DOUBLE EAGLE   PTCLDY    27  25  93 CALM      29.93S
MORIARTY ARPT  FAIR      35  25  65 NW17      29.87S WCI  25
CLINES CORNERS FAIR      29  24  82 NW43G54   29.75F WCI  11
BELEN          FAIR      32  29  87 CALM      29.94R
SOCORRO        FAIR      34  29  82 CALM      29.93S

$$
NMZ524>526-539-540-191600-
SOUTHCENTRAL MOUNTAINS

CITY           SKY/WX    TMP DP  RH WIND       PRES   REMARKS
RUIDOSO        FAIR      37  18  44 W15G23    29.84S WCI  28

$$
NMZ527>531-191600-
NORTHEAST HIGHLANDS/NORTHEAST PLAINS

CITY           SKY/WX    TMP DP  RH WIND       PRES   REMARKS
LAS VEGAS      FAIR      32  16  51 N8        29.70S WCI  25
RATON          FAIR      22  15  75 NE8       29.66R WCI  12
CLAYTON        FAIR      41  24  51 NW17      29.60R

$$
NMZ532>537-191600-
EASTCENTRAL PLAINS

CITY           SKY/WX    TMP DP  RH WIND       PRES   REMARKS
TUCUMCARI      FAIR      35  28  75 W8        29.64R WCI  29
CANNON AFB     FAIR      39  35  88 SW16      29.68R WCI  30
CLOVIS AIRPORT FAIR      39  28  65 W20G26    29.66S WCI  30

$$
NMZ028-029-538-191600-
SOUTHEAST PLAINS

CITY           SKY/WX    TMP DP  RH WIND       PRES   REMARKS
ROSWELL        FAIR      39  29  67 SW8       29.77S WCI  33
ARTESIA        FAIR      46  34  61 W13       29.80R
CARLSBAD       FAIR      52  33  48 W28G37    29.79S
HOBBS          SUNNY     41  36  81 SW12      29.80R


$$




USA.gov is the U.S. government's official web portal to all federal, state and local government web resources and services.